Regional Weather Roundup
Issued by NWS

Home | Current Version | Previous Version | Graphics & Text | Print | Product List | Glossary Off
Versions: 1 2 3 4 5 6 7 8 9 10 11 12 13 14 15 16 17 18 19 20 21 22 23 24 25 26 27 28 29 30 31 32 33 34 35 36 37 38 39 40 41 42 43 44 45 46 47 48 49 50

000
ASUS43 KDMX 011007
RWRIA

WEATHER ROUNDUP FOR IOWA
NATIONAL WEATHER SERVICE DES MOINES IA
500 AM CDT SAT AUG 01 2015

NOTE: "FAIR" INDICATES FEW OR NO CLOUDS BELOW 12,000 FEET WITH NO
SIGNIFICANT WEATHER AND/OR OBSTRUCTIONS TO VISIBILITY.

* - THESE STATIONS ARE NOT NWS STATIONS...THUS NOT UNDER NWS
QUALITY CONTROL.  THEY ALSO DO NOT REPORT WEATHER SUCH
AS PRECIPITATION OR FOG.

IAZ001>003-012>014-020>022-031>034-043>046-011100-
   NORTHWEST IOWA

CITY           SKY/WX    TMP DP  RH WIND       PRES   REMARKS
CARROLL *      CLEAR     66  64  94 CALM      30.03F
CHEROKEE *     CLEAR     61  61 100 CALM      30.03F
DENISON *      CLEAR     64  63  94 CALM      30.03F
LE MARS *      CLEAR     63  63 100 CALM      30.04F
ORANGE CITY *  CLEAR     64  61  88 SW3       30.04S
SHELDON *      CLEAR     63  61  94 CALM      30.02F
SIOUX CITY     CLEAR     64  62  93 SE3       30.03F FOG
SPENCER        CLEAR     64  59  83 W3        30.03F
STORM LAKE *   CLEAR     64  61  88 SW8       30.05F
$$

IAZ055>058-069>071-079>083-090>094-011100-
   SOUTHWEST IOWA

CITY           SKY/WX    TMP DP  RH WIND       PRES   REMARKS
ATLANTIC *     PTCLDY    64  64 100 CALM      30.04F
AUDUBON *      CLEAR     63  61  94 CALM      30.06F
CLARINDA *     CLEAR     66  66 100 CALM      30.06S FOG
COUNCIL BLFS * CLEAR     68  66  94 CALM      30.05S
CRESTON *      CLEAR     66  64  94 CALM      30.07S
HARLAN  *      FOG       63  63 100 CALM      30.08S VSB 0
LAMONI         CLEAR     68  65  90 CALM      30.05F
RED OAK *      CLEAR     64  64 100 NE6       30.04F
SHENANDOAH *   CLEAR     66  66 100 CALM      30.04F
$$

IAZ047>049-059>061-072>074-084-011100-
   CENTRAL IOWA

CITY           SKY/WX    TMP DP  RH WIND       PRES   REMARKS
AMES           CLEAR     58  57  97 CALM      30.03F
ANKENY *       CLEAR     61  61 100 CALM      30.03F
CHARITON *     CLOUDY    68  64  88 S3        30.04F
DES MOINES     PTCLDY    69  65  86 S6        30.03F
GRINNELL*      CLEAR     63  59  88 SW6       30.05F
KNOXVILLE *    CLEAR     68  61  77 CALM      30.03F
MARSHALLTOWN     N/A     60  58  92 CALM      30.03S
PELLA *        CLEAR     64  64 100 CALM      30.05F
PERRY *          N/A     64  64 100 CALM      30.04S
$$

IAZ004>006-015-016-023>025-035-036-011100-
   NORTH CENTRAL IOWA

CITY           SKY/WX    TMP DP  RH WIND       PRES   REMARKS
ALGONA *       CLEAR     64  61  88 SW8       30.02F
CLARION *      CLEAR     59  57  94 S7        30.03S
ESTHERVILLE    CLEAR     63  59  87 SW8       30.02F
FORT DODGE *   CLEAR     63  57  82 CALM      30.04F
MASON CITY     CLEAR     67  61  81 SW8       30.03F
FOREST CITY *  CLEAR     55  55 100 CALM      30.02F
IOWA FALLS *     N/A     59  57  94 SW3       30.04F
$$

IAZ007>011-017>019-026>030-037>042-050>054-066-011100-
   NORTHEAST IOWA

CITY           SKY/WX    TMP DP  RH WIND       PRES   REMARKS
CEDAR RAPIDS   CLEAR     58  58 100 CALM      30.02F
CHARLES CITY * CLEAR     61  59  94 SW5       30.02F
CLINTON *      CLEAR     57  55  94 W3        30.04F
DECORAH *      PTCLDY    64  59  82 CALM      30.00F
DUBUQUE        CLEAR     58  56  93 SW5       30.02F
MONTICELLO *   CLEAR     55  55 100 CALM      30.02F
OELWEIN *        N/A    N/A N/A N/A MISG        N/A
WATERLOO       CLEAR     59  56  89 CALM      30.01F
$$

IAZ064-065-067-068-078-011100-
   EAST CENTRAL IOWA

CITY           SKY/WX    TMP DP  RH WIND       PRES   REMARKS
DAVENPORT      CLEAR     58  56  93 SW6       30.03F
IOWA CITY      CLEAR     61  58  90 CALM      30.04S
MT. PLEASANT * CLEAR     63  59  88 CALM      30.04F
MUSCATINE *    CLEAR     61  57  88 CALM      30.03F
QUAD CITIES    CLEAR     60  57  89 CALM      30.02F
$$

IAZ062-063-075>077-085>089-095>099-011100-
   SOUTHEAST IOWA

CITY           SKY/WX    TMP DP  RH WIND       PRES   REMARKS
BURLINGTON     CLEAR     62  59  90 CALM      30.04S
FAIRFIELD *    CLEAR     63  61  94 W3        30.04F
FORT MADISON * CLEAR     64  63  94 CALM      30.04F
KEOKUK *       PTCLDY    66  64  94 SW3       30.04R
OSKALOOSA *      N/A     61  61 100 CALM      30.05F
CENTERVILLE *  PTCLDY    66  66 100 S3        30.07S
OTTUMWA        PTCLDY    63  63 100 CALM      30.03F FOG
WASHINGTON *   CLEAR     61  59  94 SW3       30.05S
$$

ABBREVIATIONS USED IN REMARKS
   TC - TEMPERATURES IN CELSIUS
  WCI - WIND CHILL INDEX
   HX - HEAT INDEX
  VSB - VISIBILITY
$$




USA.gov is the U.S. government's official web portal to all federal, state and local government web resources and services.